Regional Weather Roundup
Issued by NWS

Home | Current Version | Previous Version | Graphics & Text | Print | Product List | Glossary On
Versions: 1 2 3 4 5 6 7 8 9 10 11 12 13 14 15 16 17 18 19 20 21 22 23 24 25 26 27 28 29 30 31 32 33 34 35 36 37 38 39 40 41 42 43 44 45 46 47 48 49 50
000
ASUS45 KBOU 162010
RWRCO

WEATHER ROUNDUP FOR COLORADO
NATIONAL WEATHER SERVICE DENVER/BOULDER CO
100 PM MST TUE JAN 16 2018

NOTE: "FAIR" INDICATES FEW OR NO CLOUDS BELOW 12000 FEET WITH NO
SIGNIFICANT WEATHER AND/OR OBSTRUCTIONS TO VISIBILITY.

COZ001>005-013-030-031-162100-
...NORTHWEST COLORADO...

CITY           SKY/WX    TMP DP  RH WIND       PRES   REMARKS
CRAIG          FAIR      21   4  47 CALM      30.39F
HAYDEN         FAIR      21   6  52 SE5       30.39F WCI  15
MEEKER         FAIR      29   6  38 CALM      30.35F
RABBIT EARS PA FAIR      21  10  63 W9        30.31S WCI  11
STEAMBOAT SPGS FAIR      16   4  59 CALM      30.37F
WALDEN         FAIR      18  -6  35 CALM      30.35F
$$

COZ006>008-011-162100-
...WEST CENTRAL VALLEYS...

CITY           SKY/WX    TMP DP  RH WIND       PRES   REMARKS
GRAND JUNCTION FAIR      39  14  36 MISG      30.37F
MONTROSE       FAIR      36  16  44 N3        30.38F
EAGLE          FAIR      26   7  44 CALM      30.42F
RIFLE          FAIR      34  14  43 CALM      30.37F
DELTA          FAIR      40  16  37 CALM      30.38F
NUCLA          FAIR      37  18  44 CALM      30.38F
$$

COZ017>023-064>068-162100-
...SOUTHWEST COLORADO...

CITY           SKY/WX    TMP DP  RH WIND       PRES   REMARKS
DURANGO        FAIR      37  22  54 CALM      30.33F
CORTEZ         FAIR      41  23  48 SW6       30.34F
PAGOSA SPRINGS FAIR      35  18  50 S6        30.33F WCI  30
TELLURIDE      FAIR      37 -12  12 W6        30.32F
WOLF CREEK PAS FAIR      27   5  39 SW6       30.36F WCI  20
$$

COZ009-010-012-014-032>034-037-058>063-162100-
...CENTRAL COLORADO...

CITY           SKY/WX    TMP DP  RH WIND       PRES   REMARKS
ASPEN          FAIR      30   7  37 N5        30.32F WCI  25
BUENA VISTA    FAIR      32  -5  20 CALM      30.28F
COPPER MTN     NOT AVBL
BERTHOUD PASS  FAIR      10   0  61 NW13G24   30.27S WCI  -5
COTTONWOOD PAS NOT AVBL
GUNNISON       FAIR      27  13  55 SE5       30.36F WCI  22
KREMMLING      FAIR      21   0  39 CALM      30.42F
LEADVILLE      FAIR      32 -13  14 N8        30.26F WCI  25
MONARCH PASS   FAIR      21   1  42 SW20      30.39F WCI   6
SALIDA         FAIR      32  13  44 CALM      30.37F
SUNLIGHT       FAIR      27 -15  15 SW7       30.36F WCI  19
WILKERSON PASS FAIR      27 -27   8 CALM      30.29F
$$

COZ069>075-162100-
...SAN LUIS VALLEY/SANGRE DE CRISTO MOUNTAINS...

CITY           SKY/WX    TMP DP  RH WIND       PRES   REMARKS
ALAMOSA        FAIR      26  15  63 SE3       30.34F
DEL NORTE      FAIR      26  12  57 E6        30.35F WCI  19
LA VETA PASS   PTSUNNY   21  16  79 SW15        N/A  WCI   8
SAGUACHE       CLOUDY    25  16  68 S7        30.36F WCI  17
$$

COZ035-036-038>040-162100-
...NORTHERN COLORADO FRONT RANGE...

CITY           SKY/WX    TMP DP  RH WIND       PRES   REMARKS
DENVER INTL AP FAIR      30  -2  25 E5        30.34F WCI  25
DMNS CITY PARK NOT AVBL
AURORA         MOSUNNY   31  -1  25 SE5       30.33F WCI  26
FRONT RANGE AP MOSUNNY   32   0  25 CALM      30.35F
ERIE MUNI ARPT FAIR      29  19  66 NW5       30.41F WCI  23
BOULDER MUN AP FAIR      28  14  54 CALM      30.34F
CENTENNIAL     FAIR      32  -2  23 SE5       30.32F WCI  27
BROOMFIELD     NOT AVBL
FORT COLLINS   NOT AVBL
LONGMONT       FAIR      31  12  46 CALM      30.38F
$$

COZ041-046-047-076>085-087-088-162100-
...PIKES PEAK/PALMER DIVIDE AND SOUTHERN FOOTHILLS...

CITY           SKY/WX    TMP DP  RH WIND       PRES   REMARKS
COLO. SPRINGS  FAIR      31   4  31 S9        30.35F WCI  23
A. F. ACADEMY  FAIR      31   0  25 S7        30.31F WCI  25
SCHRIEVER AFB  FAIR      28   2  32 SW8       30.35F WCI  20
CHEYENNE MTN   FAIR      26  18  69 SE7       30.26F WCI  19
ELLICOTT         N/A    N/A N/A N/A SW3       30.34F
FALCON         FAIR      30   5  33 S7        30.32F WCI  24
FORT CARSON    FAIR      29  13  51 S9        30.34F WCI  21
LIMON          FAIR      28  -8  20 VRB3      30.37F
MONUMENT HILL  FAIR      28   5  37 S3        30.32F
CANON CITY     FAIR      30  19  64 E3        30.37F
WALSENBURG     FAIR      32  19  59 E5        30.35F WCI  27
TRINIDAD       FAIR      30  16  56 VRB6      30.37F WCI  24
$$

COZ042>045-048>051-090-091-162100-
...NORTHEAST COLORADO...

CITY           SKY/WX    TMP DP  RH WIND       PRES   REMARKS
GREELEY ARPT   NOT AVBL
AKRON          FAIR      22   4  46 SW8       30.41F WCI  12
BURLINGTON     FAIR      24  -8  24 VRB6      30.46F WCI  17
WRAY           FAIR      25  -2  30 SW3       30.50F
YUMA           FAIR      23   3  42 W6        30.46F WCI  16
STERLING       FAIR      27   5  39 SW9       30.43F WCI  17
HOLYOKE        FAIR      27   7  43 S6        30.48F WCI  20
FORT MORGAN    FAIR      26   2  37 CALM      30.41F
$$

COZ086-089-092>099-162100-
...SOUTHEAST COLORADO...

CITY           SKY/WX    TMP DP  RH WIND       PRES   REMARKS
PUEBLO         FAIR      27   9  46 E5        30.42F WCI  22
LA JUNTA       FAIR      28   4  35 SE5       30.46F WCI  23
LAMAR          FAIR      26   0  32 VRB6      30.51F WCI  19
SPRINGFIELD      N/A     28   2  32 VRB3      30.46F
$$



USA.gov is the U.S. government's official web portal to all federal, state and local government web resources and services.